This demonstration page uses our WeatherBlox Daily Observations layout. Learn more.

Left ArrowRight Arrow

Hourly Observations for June 8, 2017

Temp ( °F °C ) Dew Point ( °F °C ) Humidity (%) Winds ( mph kmh ) Pressure ( in mb ) Visibility ( mi km ) Precip ( " mm )
12:53 am 00:53 Cloudy 67 19.4 65 18.3 93 93 ESE 3 6 29.86 1011 10 16 0.00 0.03
1:53 am 01:53 Cloudy 67 19.4 66 18.9 97 97 Calm 29.85 1011 10 16 0.00 0.00
2:53 am 02:53 Mostly Cloudy 68 20 67 19.4 96 96 SE 3 6 29.85 1011 10 16 0.00 0.03
3:53 am 03:53 Cloudy 67 19.4 66 18.9 97 97 ESE 3 6 29.84 1010 10 16 0.00 0.00
4:53 am 04:53 Mostly Clear 65 18.3 65 18.3 100 100 Calm 29.84 1010 9 14 0.00 0.00
5:53 am 05:53 Mostly Clear 65 18.3 65 18.3 100 100 Calm 29.85 1011 7 11 0.00 0.00
6:53 am 06:53 Cloudy with Mist and Fog 64 17.8 64 17.8 100 100 Calm 29.87 1012 5 8 0.00 0.00
7:53 am 07:53 Mostly Cloudy 66 18.9 65 18.3 96 96 NNE 3 6 29.88 1012 10 16 0.00 0.00
8:53 am 08:53 Mostly Sunny 68 20 63 17.2 84 84 ENE 9 15 29.90 1013 10 16 0.00 0.00
9:53 am 09:53 Partly Cloudy 70 21.1 62 16.7 76 76 VRB 6 9 29.91 1013 10 16 0.00 0.00
10:39 am 10:39 Mostly Cloudy 71 21.7 62 16.7 73 73 ENE 9 15 29.91 1013 10 16 0.00 0.00
10:53 am 10:53 Mostly Cloudy 71 21.7 60 15.6 68 68 ENE 7 11 29.91 1013 10 16 0.00 0.00
11:21 am 11:21 Mostly Cloudy 72 22.2 60 15.6 66 66 NE 6 9 29.91 1013 10 16 0.00 0.00
11:53 am 11:53 Partly Cloudy 73 22.8 59 15 62 62 E 7 11 29.91 1013 10 16 0.00 0.00
12:53 pm 12:53 Mostly Cloudy 75 23.9 60 15.6 60 60 VRB 3 6 29.91 1013 10 16 0.00 0.00
1:53 pm 13:53 Mostly Cloudy 76 24.4 60 15.6 58 58 NNE 5 7 29.90 1012 10 16 0.00 0.00
2:53 pm 14:53 Mostly Sunny 77 25 59 15 54 54 SSW 6 9 29.88 1012 10 16 0.00 0.00
3:53 pm 15:53 Mostly Cloudy 78 25.6 57 13.9 48 48 VRB 7 11 29.85 1011 10 16 0.00 0.00
4:53 pm 16:53 Mostly Sunny 78 25.6 57 13.9 48 48 WSW 6 9 29.83 1010 10 16 0.00 0.00
5:53 pm 17:53 Sunny 79 26.1 57 13.9 47 47 SSW 6 9 29.83 1010 10 16 0.00 0.00
6:53 pm 18:53 Sunny 79 26.1 57 13.9 47 47 W 8 13 29.83 1010 10 16 0.00 0.00
7:53 pm 19:53 Sunny 77 25 59 15 54 54 W 7 11 29.83 1010 10 16 0.00 0.00
8:53 pm 20:53 Partly Cloudy 75 23.9 61 16.1 62 62 Calm 29.84 1011 10 16 0.00 0.00
9:53 pm 21:53 Mostly Clear 69 20.6 64 17.8 84 84 Calm 29.85 1011 10 16 0.00 0.00
10:53 pm 22:53 Partly Cloudy 68 20 65 18.3 90 90 Calm 29.88 1012 10 16 0.00 0.00
11:53 pm 23:53 Clear 67 19.4 64 17.8 91 91 Calm 29.88 1012 10 16 0.00 0.00

Powered by AerisWeather